Location: Bannatyne
(13.0833°N, 59.5333°W)
Time: 15:15:58
(UTC+00:00)

Explorer 7 - Pass Details

Date: 28 January 2020
Orbit: 485 x 679 km, 50.3° (Epoch: 16 February)

Event Time Altitude Azimuth Distance (km) Brightness Sun altitude
Rises 08:43:28 0° 341° (NNW) 2,636 - -24.6°
Reaches altitude 10° 08:46:00 10° 357° (N) 1,781 - -24.0°
Exits shadow 08:47:31 17° 16° (NNE) 1,390 8.8 -23.6°
Maximum altitude 08:49:12 22° 49° (NE) 1,223 8.9 -23.2°
Drops below altitude 10° 08:52:33 10° 101° (ESE) 1,875 10.7 -22.4°
Sets 08:55:17 0° 117° (ESE) 2,816 11.9 -21.8°
